Weather observations for the past three days for
Hebron, Hebron Municipal Airport
Metric (Imperial)
Date Time (cdt) Wind (kph) Vis. (km) Weather Sky Cond. Temperature (ºC) Relative Humidity Wind Chill (°C) Heat Index (°C) Pressure Precipitation (cm)
Air Dwpt 6 hour altimeter (cm) sea level (mb) 1 hr 3 hr 6 hr
Max. Min.
08 08:15 NE 9 16.09 Partly Cloudy SCT120 14.4 1.6 42% 75.74 0.0
08 07:35 NE 11 16.09 Fair CLR 13.1 1.4 45% 75.69 0.0
08 07:15 E 7 16.09 Partly Cloudy SCT120 13.1 1.6 46% 75.69 0.0
08 06:55 NE 9 16.09 Partly Cloudy SCT120 12.9 1.5 15.6 12 46% 75.67 0.0
08 06:35 NE 7 16.09 Fair CLR 12.7 1 45% 75.64 0.0
08 06:15 NE 9 16.09 Partly Cloudy SCT120 13 0.4 42% 75.62 0.0
08 05:55 Calm 16.09 Fair CLR 13.1 0 41% 75.62 0.0
08 05:35 E 6 16.09 Fair CLR 14 -1 36% 75.59 0.0
08 05:15 Calm 16.09 Fair CLR 14.1 -1.2 35% 75.62 0.0
08 04:55 E 7 16.09 Partly Cloudy SCT100 13.6 -1.2 36% 75.59 0.0
08 04:35 E 9 16.09 Mostly Cloudy BKN100 14.7 -1.3 34% 75.59 0.0
08 04:15 SE 11 16.09 Overcast OVC100 15.2 -1.7 32% 75.62 0.0
08 03:55 E 9 16.09 Overcast OVC100 15.6 -2.1 30% 75.62 0.0
08 03:35 E 9 16.09 Overcast OVC110 15 -1.5 32% 75.64 0.0
08 03:15 E 11 16.09 Overcast OVC110 15 -0.9 34% 75.67 0.0
08 02:35 NE 17 16.09 Overcast OVC100 14.6 -1 34% 75.67 0.0
08 02:15 NE 11 16.09 Overcast OVC100 13.7 0.4 40% 75.69 0.0
08 01:55 Calm 16.09 Overcast SCT080 OVC100 12.9 1.8 47% 75.69 0.0
08 01:35 Calm 16.09 Mostly Cloudy BKN100 BKN120 12.1 3.6 56% 75.72 0.0
08 01:15 Calm 16.09 Mostly Cloudy BKN110 12.9 0.4 43% 75.72 0.0
08 00:55 Calm 16.09 Fair CLR 13.2 -0.1 24 11.7 40% 75.72 0.0
08 00:35 Calm 16.09 Fair CLR 12.2 0.5 45% 75.72 0.0
08 00:15 E 6 16.09 Fair CLR 12.2 1.2 47% 75.72 0.0
07 23:55 SE 6 16.09 Fair CLR 12.8 -0.9 39% 75.72 0.0
07 23:35 SE 6 16.09 Fair CLR 12.8 -0.6 40% 75.72 0.0
07 23:15 SE 6 16.09 Fair CLR 12.7 -0.6 40% 75.72 0.0
07 22:55 Calm 16.09 Fair CLR 13 -0.7 39% 75.74 0.0
07 22:35 Calm 16.09 Fair CLR 12.3 0 43% 75.74 0.0
07 21:55 Calm 16.09 Fair CLR 13.9 0.1 39% 75.72 0.0
07 21:35 Calm 16.09 Fair CLR 16.6 -1.7 29% 75.72 0.0
07 21:15 NE 6 16.09 Fair CLR 17.5 -1.5 28% 75.72 0.0
07 20:55 E 7 16.09 Fair CLR 19.7 -2.9 22% 75.69 0.0
07 20:35 Calm 16.09 Fair CLR 19.1 0.1 28% 75.69 0.0
07 20:15 Calm 16.09 Fair CLR 20.2 0.6 27% 75.64 0.0
07 19:55 Calm 16.09 Fair CLR 22.5 -2.7 18% 75.64 0.0
07 19:35 Calm 16.09 Fair CLR 23.5 -3.2 17% 75.64 0.0
07 19:15 Calm 16.09 Fair CLR 24 -4.4 15% 24 75.62 0.0
07 18:55 W 7 16.09 Fair CLR 23.9 -4.3 25.1 21.1 15% 24 75.64 0.0
07 18:35 W 7 16.09 Fair CLR 24.5 -5.1 14% 24 75.64 0.0
07 18:15 W 11 16.09 Fair CLR 24.9 -4.6 14% 25 75.64 0.0
07 17:55 W 11 16.09 Fair CLR 24.4 -4.6 14% 24 75.64 0.0
07 17:35 W 7 16.09 Fair CLR 24.5 -4.7 14% 24 75.64 0.0
07 17:15 W 17 16.09 Fair CLR 24.5 -4.4 14% 24 75.67 0.0
07 16:55 NW 17 16.09 Fair CLR 25.1 -4.5 14% 25 75.67 0.0
07 16:35 NW 17 G 30 16.09 Fair CLR 24.9 -5.2 13% 25 75.67 0.0
07 16:15 NW 17 G 26 16.09 Fair CLR 24.5 -4.6 14% 24 75.69 0.0
07 15:55 W 17 G 28 16.09 Fair CLR 24.6 -4.2 14% 24 75.72 0.0
07 15:35 W 26 G 33 16.09 Fair CLR 24.7 -3.7 15% 25 75.72 0.0
07 15:15 W 17 G 31 16.09 Fair CLR 24.7 -6.2 12% 24 75.74 0.0
07 14:35 NW 13 G 33 16.09 Fair CLR 24.1 -4.8 14% 24 75.77 0.0
07 14:15 W 26 G 35 16.09 Fair CLR 23.6 -3.3 16% 75.77 0.0
07 13:55 W 17 G 30 16.09 Fair CLR 22.8 -1.8 19% 75.77 0.0
07 13:35 SW 17 G 41 16.09 Fair CLR 22.3 -0.4 22% 75.77 0.0
07 13:15 W 26 G 39 16.09 Fair CLR 21.5 -0.2 24% 75.79 0.0
07 12:55 W 26 G 33 16.09 Fair CLR 21.1 0.3 21.1 5.8 25% 75.82 0.0
07 12:15 SW 26 G 33 16.09 Fair CLR 20 0.5 27% 75.84 0.0
07 11:55 SW 22 G 37 16.09 Fair CLR 19.6 0.4 28% 75.9 0.0
07 11:35 SW 22 G 39 16.09 Fair CLR 18.5 0.8 31% 75.9 0.0
07 10:55 SW 22 G 37 16.09 Fair CLR 16.7 2.1 38% 75.92 0.0
07 10:35 SW 19 G 31 16.09 Fair CLR 16 1.4 37% 75.92 0.0
07 10:15 SW 20 16.09 Fair CLR 14.8 2.4 43% 75.95 0.0
07 09:55 SW 20 G 28 16.09 Fair CLR 13.6 2.5 47% 75.95 0.0
07 09:35 SW 19 G 28 16.09 Fair CLR 12.8 3 52% 75.97 0.0
07 09:15 SW 20 G 31 16.09 Fair CLR 12.1 3 54% 76 0.0
07 08:55 W 17 16.09 Fair CLR 10.8 3.4 61% 76.02 0.0
07 08:35 SW 17 G 28 16.09 Fair CLR 9.7 3.3 65% 8 76.05 0.0
07 08:15 SW 15 16.09 Fair CLR 8.8 3.5 70% 7 76.05 0.0
07 07:55 SW 13 16.09 Fair CLR 7.8 3.5 75% 6 76.07 0.0
07 07:35 SW 15 16.09 Fair CLR 7 3.2 77% 5 76.07 0.0
07 07:15 SW 15 16.09 Fair CLR 6.3 3 80% 4 76.07 0.0
07 06:55 SW 13 16.09 Fair CLR 5.8 2.8 7.8 5.3 81% 3 76.07 0.0
07 06:35 SW 11 16.09 Fair CLR 5.5 2.5 81% 3 76.07 0.0
07 05:55 SW 13 16.09 Fair CLR 6.2 3 80% 4 76.1 0.0
07 05:35 W 15 16.09 Fair CLR 6.2 3 80% 4 76.12 0.0
07 05:15 SW 13 16.09 Fair CLR 6.5 3.1 79% 4 76.1 0.0
07 04:55 SW 13 16.09 Fair CLR 6.5 3.2 80% 4 76.12 0.0
07 04:35 W 17 G 26 16.09 Fair CLR 6.5 3.3 80% 4 76.15 0.0
07 04:15 SW 13 16.09 Fair CLR 6.6 3.5 81% 4 76.15 0.0
07 03:55 SW 13 16.09 Fair CLR 6.8 3.6 80% 5 76.17 0.0
07 03:35 SW 13 16.09 Fair CLR 6.9 3.6 80% 5 76.17 0.0
07 03:15 W 15 16.09 Fair CLR 7.1 3.5 78% 5 76.2 0.0
07 02:55 W 15 16.09 Fair CLR 7.5 3.6 77% 5 76.2 0.0
07 02:35 W 15 16.09 Fair CLR 7.3 3.6 78% 5 76.2 0.0
07 02:15 SW 13 16.09 Fair CLR 6.9 3.2 78% 5 76.23 0.0
07 01:55 W 13 16.09 Fair CLR 7.3 3.2 75% 5 76.25 0.0
07 01:35 SW 11 16.09 Fair CLR 7 3 76% 5 76.25 0.0
07 01:15 SW 11 16.09 Fair CLR 7.5 3 73% 6 76.28 0.0
07 00:55 SW 11 16.09 Fair CLR 7.8 3 15.5 7.5 72% 6 76.28 0.0
07 00:35 SW 11 16.09 Fair CLR 7.5 2.7 72% 6 76.3 0.0
07 00:15 SW 11 16.09 Fair CLR 7.7 2.5 70% 6 76.3 0.0
06 23:35 W 9 16.09 Fair CLR 8.6 2.5 66% 7 76.33 0.0
06 23:15 W 9 16.09 Fair CLR 9 2.3 63% 8 76.33 0.0
06 22:55 W 11 16.09 Fair CLR 9.3 1.8 60% 8 76.33 0.0
06 22:35 W 13 16.09 Fair CLR 9.7 1.6 57% 8 76.33 0.0
06 22:15 W 11 16.09 Fair CLR 10.1 1.5 55% 76.33 0.0
06 21:55 W 9 16.09 Fair CLR 10.6 1.2 53% 76.33 0.0
06 21:35 SW 9 16.09 Fair CLR 11.6 0.6 47% 76.33 0.0
06 20:55 SW 9 G 15 16.09 Fair CLR 12.7 0 42% 76.28 0.0
06 20:35 SW 17 16.09 Fair CLR 13.2 -0.5 39% 76.28 0.0
06 20:15 W 11 16.09 Fair CLR 13.8 -2.7 32% 76.28 0.0
06 19:55 W 7 16.09 Partly Cloudy SCT090 14 -4.9 27% 76.28 0.0
06 19:35 W 11 16.09 Partly Cloudy SCT080 SCT090 14.5 -5.2 25% 76.28 0.0
06 19:15 W 6 16.09 Fair CLR 14.5 -4.7 26% 76.28 0.0
06 18:55 W 13 16.09 Fair CLR 15.5 -5.8 16.7 13.4 23% 76.28 0.0
06 18:35 W 7 16.09 Partly Cloudy SCT085 15 -6.3 23% 76.28 0.0
06 17:55 W 9 16.09 Fair CLR 16 -6.8 20% 76.3 0.0
06 17:35 W 11 16.09 Partly Cloudy SCT090 15.5 -6.4 22% 76.3 0.0
06 17:15 W 13 16.09 Mostly Cloudy BKN090 15.4 -7 21% 76.33 0.0
06 16:55 NW 9 16.09 Partly Cloudy SCT090 15.4 -7 21% 76.33 0.0
06 16:35 N 6 16.09 Partly Cloudy SCT085 16.1 -7.8 19% 76.35 0.0
06 16:15 W 9 16.09 Mostly Cloudy BKN085 16.5 -6.7 20% 76.35 0.0
06 15:55 Calm 16.09 Mostly Cloudy BKN085 14.4 -7.5 21% 76.38 0.0
06 15:35 N 9 16.09 Mostly Cloudy BKN085 15.1 -6.6 22% 76.4 0.0
06 15:15 NW 9 16.09 Partly Cloudy SCT075 14.2 -6.7 23% 76.43 0.0
06 14:55 W 11 16.09 Overcast OVC075 15.3 -6.3 22% 76.4 0.0
06 14:35 NW 15 16.09 Mostly Cloudy BKN075 15.6 -6.2 22% 76.45 0.0
06 14:15 W 11 16.09 Mostly Cloudy BKN075 13.8 -6.3 24% 76.45 0.0
06 13:55 N 11 16.09 Mostly Cloudy BKN075 14.3 -6.3 24% 76.48 0.0
06 13:35 N 17 16.09 Partly Cloudy SCT075 14.2 -6.5 23% 76.48 0.0
06 13:15 SW 11 16.09 Fair CLR 14.1 -5.9 25% 76.5 0.0
06 12:55 NE 9 16.09 Partly Cloudy SCT070 13.4 -6.9 13.6 5.7 24% 76.5 0.0
06 12:35 E 6 16.09 Partly Cloudy SCT070 13.1 -6.8 25% 76.5 0.0
06 12:15 Calm 16.09 Fair CLR 12.8 -6.8 25% 76.5 0.0
06 11:55 Calm 16.09 Fair CLR 12.2 -7.1 26% 76.53 0.0
06 11:35 NW 13 16.09 Partly Cloudy SCT075 12.6 -6.6 26% 76.53 0.0
06 11:15 NE 9 16.09 Partly Cloudy SCT075 12.1 -7.1 26% 76.53 0.0
06 10:55 Calm 16.09 Mostly Cloudy BKN075 12 -6.1 28% 76.53 0.0
06 10:35 S 6 16.09 Mostly Cloudy BKN075 11 -6.1 30% 76.53 0.0
06 10:15 Calm 16.09 Fair CLR 10.4 -5.4 33% 76.53 0.0
06 09:55 Calm 16.09 Fair CLR 10 -2.9 41% 76.53 0.0
06 09:35 Calm 16.09 Partly Cloudy SCT080 SCT120 9.7 -2.4 43% 76.5 0.0
06 09:15 Calm 16.09 Partly Cloudy SCT080 SCT120 8.8 -0.2 54% 76.5 0.0
06 08:55 Calm 16.09 Partly Cloudy SCT080 8 -0.5 55% 76.5 0.0
06 08:35 Calm 16.09 Partly Cloudy SCT120 7.5 -0.3 58% 76.5 0.0
06 08:15 Calm 16.09 Partly Cloudy SCT120 7.1 -0.1 61% 76.48 0.0
06 07:55 Calm 16.09 Fair CLR 6.7 0 63% 76.45 0.0
06 07:35 Calm 16.09 Fair CLR 6.5 0 64% 76.45 0.0
06 07:15 Calm 16.09 Fair CLR 6.1 -0.3 64% 76.4 0.0
06 06:55 Calm 16.09 Partly Cloudy SCT080 5.6 -0.1 9.5 5.6 67% 76.4 0.0
06 06:35 Calm 16.09 Partly Cloudy SCT080 6.5 -1.1 59% 76.35 0.0
06 06:15 N 6 16.09 Overcast OVC080 6.7 -0.7 60% 76.33 0.0
06 05:55 Calm 16.09 Overcast OVC080 7 -0.5 59% 76.33 0.0
06 05:35 Calm 16.09 Overcast OVC080 7 0 61% 76.33 0.0
06 05:15 Calm 16.09 Overcast OVC080 6.6 1.6 71% 76.33 0.0
06 04:55 Calm 16.09 Overcast OVC070 6.6 1.7 71% 76.33 0.0
06 04:35 Calm 16.09 Overcast OVC070 6.6 1.5 70% 76.33 0.0
06 04:15 Calm 16.09 Overcast OVC070 6.6 1.6 71% 76.33 0.0
06 03:55 Calm 16.09 Overcast OVC070 6.8 1.9 71% 76.3 0.0
06 03:35 Calm 16.09 Overcast OVC070 7 2 71% 76.28 0.0
06 03:15 Calm 16.09 Partly Cloudy SCT070 7.5 1.9 68% 76.28 0.0
06 02:55 Calm 16.09 Fair CLR 7.8 0.9 62% 76.28 0.0
06 02:35 Calm 16.09 Mostly Cloudy BKN100 BKN120 7.7 1.4 65% 76.25 0.0
06 02:15 Calm 16.09 Overcast OVC100 8.2 0.2 57% 76.25 0.0
06 01:55 Calm 16.09 Overcast OVC100 8.7 -0.1 54% 76.25 0.0
06 01:35 Calm 16.09 Overcast SCT080 OVC090 8.5 0.4 57% 76.25 0.0
06 01:15 Calm 16.09 Overcast OVC100 9.2 -1 49% 76.25 0.0
06 00:55 N 6 16.09 Overcast OVC100 9.5 -0.5 12.8 8.9 50% 76.23 0.0
06 00:35 N 7 16.09 Overcast SCT080 OVC100 9.6 -0.1 51% 9 76.2 0.0
06 00:15 Calm 16.09 Overcast SCT070 OVC110 9 1.7 61% 76.2 0.0
05 23:55 Calm 16.09 Mostly Cloudy SCT075 BKN120 9.3 1 56% 76.2 0.0
05 23:35 Calm 16.09 Mostly Cloudy SCT075 BKN120 9.1 1 57% 76.2 0.0
05 23:15 Calm 16.09 Mostly Cloudy SCT075 SCT090 BKN110 10 0 50% 76.2 0.0
05 22:55 Calm 16.09 Mostly Cloudy SCT075 SCT090 BKN120 10 1.9 57% 76.2 0.0
05 22:35 Calm 16.09 Overcast SCT080 OVC110 10.3 1.7 56% 76.17 0.0
05 22:15 Calm 16.09 Overcast SCT075 SCT085 OVC110 10.5 1.2 53% 76.17 0.0
05 21:55 Calm 16.09 Overcast SCT085 OVC110 11 0.2 48% 76.12 0.0
05 21:35 N 9 16.09 Overcast OVC110 10.8 1.3 52% 76.1 0.0
05 21:15 NW 7 16.09 Overcast OVC110 11 0.9 50% 76.07 0.0
05 20:55 Calm 16.09 Overcast OVC110 10.9 1.5 53% 76.02 0.0
05 20:35 W 7 16.09 Overcast OVC110 11.1 1.5 52% 76 0.0
05 20:15 Calm 16.09 Overcast OVC110 11.5 0.9 48% 76 0.0
05 19:55 W 6 16.09 Overcast SCT065 OVC110 11.9 0.6 46% 76 0.0
05 19:35 N 9 16.09 Overcast SCT065 SCT075 OVC110 12.4 0.1 43% 76.02 0.0
05 19:15 NW 9 16.09 Overcast OVC065 12.6 -0.1 42% 76.02 0.0
05 18:55 NW 11 16.09 Overcast BKN065 OVC110 12.9 -0.5 13.6 11.9 40% 76 0.0
05 18:35 N 7 16.09 Mostly Cloudy SCT065 BKN110 13.1 -0.4 40% 76 0.0
05 18:15 N 9 16.09 Fair CLR 13.1 0 41% 75.95 0.0
05 17:55 Calm 16.09 Fair CLR 13 -0.7 39% 75.97 0.0
05 17:35 N 11 16.09 Partly Cloudy SCT050 SCT110 13.1 -0.6 39% 76 0.0
05 17:15 N 13 16.09 Partly Cloudy SCT050 SCT080 SCT110 13.3 -0.8 38% 76 0.0
05 16:55 NW 15 16.09 Partly Cloudy SCT050 SCT065 SCT080 13 -0.2 41% 76 0.0
05 16:35 NW 9 G 15 16.09 Mostly Cloudy SCT065 SCT080 BKN110 13.4 -0.9 38% 76.02 0.0
05 16:15 N 17 G 26 16.09 Overcast SCT050 OVC075 13.3 0.1 41% 76.02 0.0
05 15:55 N 13 16.09 Overcast BKN050 BKN060 OVC075 13.3 1.3 44% 76.05 0.0
05 15:35 N 13 16.09 Overcast BKN050 BKN085 OVC110 13 0.2 42% 76.05 0.0
05 15:15 N 9 16.09 Overcast OVC100 12.6 0.1 43% 76.05 0.0
05 14:55 N 9 16.09 Overcast SCT070 SCT080 OVC110 12.6 -0.4 41% 76.07 0.0
05 14:35 N 13 16.09 Overcast SCT055 SCT075 OVC110 12.6 -0.2 42% 76.07 0.0
05 14:15 N 15 16.09 Overcast BKN055 OVC110 12.7 -1.2 38% 76.1 0.0
05 13:55 N 13 16.09 Overcast OVC055 12.5 -1.1 39% 76.07 0.0
05 13:35 E 9 16.09 Overcast SCT055 OVC100 12.1 -1.9 38% 76.07 0.0
05 13:15 N 7 16.09 Mostly Cloudy SCT055 SCT075 BKN100 12.1 -1.7 39% 76.1 0.0
05 12:55 N 11 16.09 Overcast SCT049 BKN055 OVC070 11.8 -1.1 12.1 8.1 41% 76.1 0.0
05 12:35 N 17 16.09 Overcast OVC055 12.1 -1 41% 76.1 0.0
05 12:15 E 7 16.09 Overcast BKN050 OVC065 11.8 -0.3 44% 76.1 0.0
05 11:55 NE 6 16.09 Overcast BKN060 OVC075 11.6 -0.1 45% 76.12 0.0
05 11:35 NE 9 16.09 Overcast OVC060 11.5 0 45% 76.12 0.0
05 11:15 NE 7 16.09 Overcast SCT049 BKN060 OVC075 11.2 1.1 50% 76.1 0.0
05 10:35 Calm 16.09 Overcast SCT060 BKN070 OVC095 10.7 2.8 58% 76.1 0.0
05 10:15 Calm 16.09 Overcast OVC095 10.5 4.2 65% 76.07 0.0
05 09:55 Calm 16.09 Overcast OVC095 10 4.8 70% 76.07 0.0
05 09:35 Calm 16.09 Overcast OVC095 9.5 5.9 78% 76.07 0.0
05 09:15 Calm 16.09 Overcast OVC095 9.3 5.6 78% 76.05 0.0
05 08:55 Calm 16.09 Overcast OVC085 9.2 5.4 77% 76.05 0.0
05 08:35 Calm 16.09 Overcast SCT070 OVC085 8.9 5.1 77% 76.02 0.0
Date Time (cdt) Wind (kph) Vis. (km) Weather Sky Cond. Air Dwpt Max. Min. Relative Humidity Wind Chill (°C) Heat Index (°C) altimeter (cm) sea level (mb) 1 hr 3 hr 6 hr
6 hour
Temperature (ºC) Pressure Precipitation (cm)